KN4FVH Weather Reports


time (UTC)temp
C
wind
direction
speed
KPH
gust
KPH
rain 1hr
cm
rain 24hr
cm
rain mn
cm
humidity
%
barometer
mb
20260508044414 12 29 0.0 0.0 0.00 0.00 0.00 99 1015.3
20260508043909 12 29 0.0 0.0 0.00 0.00 0.00 99 1015.0
20260508043407 12 29 0.0 0.0 0.00 0.00 0.00 99 1015.3
20260508042902 12 29 0.0 0.0 0.00 0.00 0.00 99 1015.0
20260508042400 12 29 0.0 0.0 0.00 0.00 0.00 99 1015.2
20260508041857 12 29 0.0 0.0 0.00 0.00 0.00 99 1015.0
20260508041353 12 29 0.0 0.0 0.00 0.00 0.00 99 1014.9
20260508040849 12 29 0.0 0.0 0.00 0.00 0.00 99 1015.0
20260508040347 12 29 0.0 0.0 0.00 0.00 0.00 99 1015.0
20260508035844 12 29 0.0 0.0 0.00 0.00 0.00 99 1014.9
20260508035341 12 29 0.0 0.0 0.00 0.00 0.00 99 1014.8
20260508034838 12 29 0.0 0.0 0.00 0.00 0.00 99 1015.2
20260508034336 12 29 0.0 0.0 0.00 0.00 0.00 99 1014.9
20260508033832 12 29 0.0 0.0 0.00 0.00 0.00 99 1014.6
20260508033331 12 29 0.0 0.0 0.00 0.00 0.00 99 1014.5
20260508032828 12 29 0.0 0.0 0.00 0.00 0.00 99 1014.3
20260508032325 12 29 0.0 0.0 0.00 0.00 0.00 99 1014.4
20260508031821 12 29 0.0 1.6 0.00 0.00 0.00 99 1014.2
20260508031318 12 31 0.0 0.0 0.00 0.00 0.00 99 1014.3
20260508030814 12 31 0.0 0.0 0.00 0.00 0.00 99 1014.4
20260508030312 12 31 0.0 0.0 0.00 0.00 0.00 99 1014.4
20260508025808 12 31 0.0 0.0 0.00 0.00 0.00 99 1014.5
20260508025306 12 31 0.0 0.0 0.00 0.00 0.00 99 1014.2
20260508024801 12 30 0.0 0.0 0.00 0.00 0.00 99 1014.1
20260508024258 12 30 0.0 0.0 0.00 0.00 0.00 99 1014.2
20260508023756 12 30 0.0 0.0 0.00 0.00 0.00 99 1014.2
20260508023253 12 30 0.0 0.0 0.00 0.00 0.00 99 1014.2
20260508022748 12 33 0.0 0.0 0.00 0.00 0.00 99 1013.7
20260508022245 12 33 0.0 0.0 0.00 0.00 0.00 99 1013.9
20260508021742 12 33 0.0 0.0 0.00 0.00 0.00 99 1013.7
20260508021237 12 33 0.0 0.0 0.00 0.00 0.00 99 1013.8
20260508020735 12 33 0.0 0.0 0.00 0.00 0.00 99 1013.5
20260508020232 12 34 0.0 0.0 0.00 0.00 0.00 99 1013.7
20260508015729 12 36 0.0 0.0 0.00 0.00 0.00 99 1014.0
20260508015226 12 36 0.0 0.0 0.00 0.00 0.00 99 1013.8
20260508014723 12 35 0.0 0.0 0.00 0.00 0.00 99 1013.8
20260508014220 12 34 0.0 0.0 0.00 0.00 0.00 99 1013.7
20260508013715 12 38 0.0 0.0 0.00 0.00 0.00 99 1013.6
20260508013212 12 38 0.0 0.0 0.00 0.00 0.00 99 1013.4
20260508012710 12 38 0.0 0.0 0.00 0.00 0.00 99 1013.3
20260508012206 12 38 0.0 0.0 0.00 0.00 0.00 98 1012.9
20260508011705 12 38 0.0 0.0 0.00 0.00 0.00 98 1013.0
20260508011202 12 18 0.0 0.0 0.00 0.00 0.00 98 1012.6
20260508010659 12 19 0.0 0.0 0.00 0.00 0.00 98 1012.8
20260508010157 12 353 0.0 0.0 0.00 0.00 0.00 98 1012.7
20260508005653 12 349 0.0 0.0 0.00 0.00 0.00 98 1013.3
20260508005150 12 338 0.0 0.0 0.00 0.00 0.00 98 1013.1
20260508004646 12 336 0.0 0.0 0.00 0.00 0.00 98 1013.0
20260508004142 12 336 0.0 0.0 0.00 0.00 0.00 98 1012.8
20260508003639 12 336 0.0 0.0 0.00 0.00 0.00 98 1012.5
20260508003137 12 339 0.0 0.0 0.00 0.00 0.00 98 1012.4
20260508002633 12 345 0.0 0.0 0.00 0.00 0.00 97 1012.6
20260508002131 12 336 0.0 0.0 0.00 0.00 0.00 97 1013.1
20260508001625 12 38 0.0 1.6 0.00 0.00 0.00 97 1012.9
20260508001122 12 21 1.6 1.6 0.00 0.00 0.00 97 1012.5
20260508000618 12 6 0.0 0.0 0.00 0.00 0.00 97 1012.6
20260508000116 12 297 0.0 0.0 0.00 0.00 0.00 97 1012.4
20260507235612 12 309 0.0 0.0 0.00 0.00 0.00 97 1011.8
20260507235110 12 46 0.0 0.0 0.00 0.00 0.00 97 1011.7
20260507234606 12 355 0.0 0.0 0.00 0.00 0.00 97 1011.9
20260507234102 12 19 0.0 1.6 0.00 0.00 0.00 97 1011.6
20260507233559 12 195 0.0 0.0 0.00 0.00 0.00 97 1011.9
20260507233058 12 194 0.0 0.0 0.00 0.00 0.00 97 1011.7
20260507232553 12 256 1.6 1.6 0.00 0.00 0.00 97 1011.6
20260507232051 12 287 0.0 0.0 0.00 0.00 0.00 98 1011.6
20260507231547 12 244 0.0 0.0 0.00 0.00 0.00 98 1011.7
20260507231045 12 36 0.0 0.0 0.00 0.00 0.00 98 1011.6
20260507230541 12 22 1.6 1.6 0.00 0.00 0.00 98 1012.1
20260507230038 12 10 1.6 1.6 0.00 0.00 0.00 98 1011.7
20260507225533 12 227 0.0 1.6 0.00 0.00 0.00 98 1011.5
20260507225030 12 336 0.0 1.6 0.00 0.00 0.00 98 1011.7
20260507224526 12 327 0.0 0.0 0.00 0.00 0.00 98 1011.6
20260507224022 12 58 0.0 0.0 0.00 0.00 0.00 97 1011.5
20260507223518 12 66 0.0 1.6 0.00 0.00 0.00 98 1011.2
20260507223016 12 49 1.6 3.2 0.00 0.00 0.00 98 1011.1
20260507222513 12 46 0.0 1.6 0.00 0.00 0.00 98 1011.2
20260507222009 12 3 1.6 1.6 0.00 0.00 0.00 98 1011.2
20260507221506 12 347 1.6 1.6 0.00 0.00 0.00 98 1011.3
20260507221002 12 354 1.6 3.2 0.00 0.00 0.00 97 1011.2
20260507220500 12 5 0.0 0.0 0.00 0.00 0.00 97 1011.2
20260507215956 12 352 1.6 1.6 0.00 0.00 0.00 97 1011.2
20260507215452 12 284 0.0 0.0 0.00 0.00 0.00 97 1011.6
20260507214950 12 41 1.6 1.6 0.00 0.00 0.00 97 1011.5
20260507214448 12 17 0.0 1.6 0.00 0.00 0.00 97 1011.3
20260507213943 12 46 0.0 0.0 0.00 0.00 0.00 96 1011.2
20260507213440 12 22 1.6 3.2 0.00 0.00 0.00 96 1011.5
20260507212937 12 21 0.0 0.0 0.00 0.00 0.00 97 1011.4
20260507212427 12 50 0.0 1.6 0.00 0.00 0.00 97 1011.3
20260507211924 12 11 0.0 0.0 0.00 0.00 0.00 97 1011.3
20260507211420 12 8 0.0 0.0 0.00 0.00 0.00 97 1011.3
20260507210917 12 327 0.0 0.0 0.00 0.00 0.00 97 1011.3
20260507210415 12 1 0.0 1.6 0.00 0.00 0.00 97 1011.2
20260507205911 12 27 0.0 1.6 0.00 0.00 0.00 97 1010.9
20260507205408 12 352 1.6 3.2 0.00 0.00 0.00 97 1010.6
20260507204904 12 95 0.0 1.6 0.00 0.00 0.00 98 1010.8
20260507204401 12 3 0.0 1.6 0.00 0.00 0.00 98 1010.8
20260507203858 13 54 3.2 3.2 0.00 0.00 0.00 98 1010.9
20260507203356 13 27 4.8 8.0 0.00 0.00 0.00 98 1010.7
20260507202852 13 52 3.2 4.8 0.00 0.00 0.00 99 1010.5
20260507202349 13 75 0.0 0.0 0.00 0.00 0.00 99 1010.6
20260507201844 13 345 0.0 1.6 0.00 0.00 0.00 99 1010.4
20260507201341 13 339 1.6 1.6 0.00 0.00 0.00 99 1010.7
20260507200837 13 13 1.6 3.2 0.00 0.00 0.00 99 1010.2
20260507200333 13 80 0.0 0.0 0.00 0.00 0.00 99 1010.4
20260507195829 13 7 0.0 1.6 0.00 0.00 0.00 99 1010.7
20260507195327 13 9 1.6 3.2 0.00 0.00 0.00 99 1010.5
20260507194824 13 33 0.0 1.6 0.00 0.00 0.00 99 1010.4
20260507194320 13 34 0.0 0.0 0.00 0.00 0.00 99 1010.6
20260507193816 13 20 1.6 1.6 0.00 0.00 0.00 99 1010.6
20260507193313 13 107 1.6 1.6 0.00 0.00 0.00 99 1010.5
20260507192809 13 334 4.8 4.8 0.00 0.00 0.00 99 1010.4
20260507192306 13 317 1.6 1.6 0.00 0.00 0.00 99 1010.3
20260507191802 13 254 1.6 3.2 0.00 0.00 0.00 99 1010.6
20260507191259 13 36 1.6 1.6 0.00 0.00 0.00 99 1010.6
20260507190756 13 34 1.6 1.6 0.00 0.00 0.00 99 1010.7
20260507190254 13 33 3.2 3.2 0.00 0.00 0.00 99 1010.9
20260507185753 14 329 1.6 1.6 0.00 0.00 0.00 99 1010.5
20260507185249 15 357 0.0 1.6 0.00 0.00 0.00 99 1010.3
20260507184747 15 72 0.0 0.0 0.00 0.00 0.00 99 1010.0
20260507184244 15 0 0.0 0.0 0.00 0.00 0.00 99 1009.5
20260507183741 15 4 1.6 3.2 0.00 0.00 0.00 99 1010.3
20260507183238 15 54 0.0 0.0 0.00 0.00 0.00 99 1010.6
20260507182735 15 52 4.8 4.8 0.00 0.00 0.00 99 1010.7
20260507182230 15 306 0.0 0.0 0.00 0.00 0.00 99 1010.9
20260507181728 15 353 1.6 1.6 0.00 0.00 0.00 99 1009.9
20260507181224 15 355 3.2 4.8 0.00 0.00 0.00 99 1009.7
20260507180721 15 1 1.6 3.2 0.00 0.00 0.00 99 1009.8
20260507180218 15 21 0.0 1.6 0.00 0.00 0.00 99 1010.1
20260507175713 15 326 0.0 1.6 0.00 0.00 0.00 99 1010.0
20260507175210 15 11 3.2 4.8 0.00 0.00 0.00 99 1010.2
20260507174708 16 331 3.2 3.2 0.00 0.00 0.00 99 1010.3
20260507174206 16 300 4.8 9.7 0.00 0.00 0.00 99 1010.6
20260507173703 19 359 1.6 3.2 0.00 0.00 0.00 99 1010.1
20260507173159 20 323 0.0 1.6 0.00 0.00 0.00 99 1010.2
20260507172656 20 323 0.0 0.0 0.00 0.00 0.00 99 1009.8
20260507172153 20 330 0.0 0.0 0.00 0.00 0.00 99 1009.6
20260507171652 20 332 0.0 0.0 0.00 0.00 0.00 99 1009.5
20260507171150 20 339 0.0 0.0 0.00 0.00 0.00 99 1009.3
20260507170647 20 339 0.0 0.0 0.00 0.00 0.00 99 1009.4
20260507170145 20 339 0.0 0.0 0.00 0.00 0.00 99 1009.3
20260507165640 20 339 0.0 0.0 0.00 0.00 0.00 99 1009.4
20260507165137 20 339 0.0 0.0 0.00 0.00 0.00 99 1009.6
20260507164632 20 340 0.0 0.0 0.00 0.00 0.00 99 1009.2
20260507164130 20 339 0.0 0.0 0.00 0.00 0.00 99 1009.5
20260507163627 20 2 0.0 0.0 0.00 0.00 0.00 99 1009.7
20260507163125 20 2 0.0 0.0 0.00 0.00 0.00 99 1010.1
20260507162620 20 331 0.0 0.0 0.00 0.00 0.00 99 1010.4
20260507162117 20 339 0.0 0.0 0.00 0.00 0.00 99 1010.6
20260507161613 20 300 0.0 0.0 0.00 0.00 0.00 99 1010.8
20260507161110 20 301 0.0 0.0 0.00 0.00 0.00 99 1011.0
20260507160606 20 293 0.0 0.0 0.00 0.00 0.00 99 1011.0
20260507155558 19 340 1.6 1.6 0.00 0.00 0.00 99 1011.0
20260507155055 19 342 0.0 0.0 0.00 0.00 0.00 99 1010.8
20260507154552 20 343 0.0 1.6 0.00 0.00 0.00 99 1010.8
20260507154049 20 226 0.0 1.6 0.00 0.00 0.00 99 1010.9
20260507153546 20 202 0.0 0.0 0.00 0.00 0.00 99 1010.4
20260507153042 20 202 0.0 0.0 0.00 0.00 0.00 99 1010.1
20260507152538 20 203 0.0 0.0 0.00 0.00 0.00 99 1010.5
20260507152034 19 190 0.0 0.0 0.00 0.00 0.00 99 1010.2
20260507151530 19 192 0.0 0.0 0.00 0.00 0.00 99 1010.8
20260507151028 19 196 0.0 0.0 0.00 0.00 0.00 99 1010.8
20260507150525 19 196 0.0 0.0 0.00 0.00 0.00 99 1010.7
20260507150021 19 197 0.0 0.0 0.00 0.00 0.00 99 1010.6
20260507145516 19 198 0.0 0.0 0.00 0.00 0.00 99 1010.8
20260507145014 19 253 0.0 0.0 0.00 0.00 0.00 99 1010.9
20260507144510 19 191 0.0 0.0 0.00 0.00 0.00 99 1011.0
20260507144008 19 191 0.0 0.0 0.00 0.00 0.00 99 1011.0
20260507143505 19 194 0.0 0.0 0.00 0.00 0.00 99 1011.0
20260507143002 19 194 3.2 4.8 0.00 0.00 0.00 99 1011.1
20260507142457 19 206 0.0 0.0 0.00 0.00 0.00 99 1011.0
20260507141955 18 239 0.0 0.0 0.00 0.00 0.00 99 1011.0
20260507141451 18 200 0.0 0.0 0.00 0.00 0.00 99 1011.1
20260507140947 18 203 0.0 0.0 0.00 0.00 0.00 99 1011.0
20260507140444 18 191 0.0 0.0 0.00 0.00 0.00 99 1011.0
20260507135942 18 185 0.0 0.0 0.00 0.00 0.00 99 1011.4
20260507135439 18 183 0.0 0.0 0.00 0.00 0.00 99 1011.3
20260507134936 18 185 0.0 0.0 0.00 0.00 0.00 99 1011.4
20260507134433 18 183 0.0 0.0 0.00 0.00 0.00 99 1011.4
20260507133929 18 186 0.0 0.0 0.00 0.00 0.00 99 1011.6
20260507133425 18 189 0.0 0.0 0.00 0.00 0.00 99 1011.6
20260507132924 18 185 0.0 0.0 0.00 0.00 0.00 99 1011.5
20260507132419 18 185 0.0 0.0 0.00 0.00 0.00 99 1011.4
20260507131916 18 183 0.0 0.0 0.00 0.00 0.00 99 1011.6
20260507131413 18 189 0.0 0.0 0.00 0.00 0.00 99 1011.7
20260507130910 18 188 0.0 0.0 0.00 0.00 0.00 99 1011.2
20260507130407 18 186 0.0 0.0 0.00 0.00 0.00 99 1011.3
20260507125906 18 193 0.0 0.0 0.00 0.00 0.00 99 1011.3
20260507125404 18 193 0.0 0.0 0.00 0.00 0.00 99 1011.5
20260507124901 18 196 0.0 0.0 0.00 0.00 0.00 99 1011.5
20260507124356 18 194 0.0 0.0 0.00 0.00 0.00 99 1011.4
20260507123855 18 194 0.0 0.0 0.00 0.00 0.00 99 1011.6
20260507123351 18 195 0.0 0.0 0.00 0.00 0.00 99 1011.4
20260507122848 18 195 0.0 0.0 0.00 0.00 0.00 99 1011.4
20260507122344 18 196 0.0 0.0 0.00 0.00 0.00 99 1011.4
20260507121840 18 191 0.0 0.0 0.00 0.00 0.00 99 1011.4
20260507121336 18 190 0.0 1.6 0.00 0.00 0.00 99 1011.4
20260507120832 18 191 0.0 1.6 0.00 0.00 0.00 99 1011.2
20260507120329 18 192 0.0 0.0 0.00 0.00 0.00 99 1011.4
20260507115825 18 192 0.0 0.0 0.00 0.00 0.00 99 1011.4
20260507115321 18 192 0.0 0.0 0.00 0.00 0.00 99 1011.7
20260507114817 18 192 0.0 0.0 0.00 0.00 0.00 99 1011.5
20260507114314 18 195 0.0 0.0 0.00 0.00 0.00 99 1011.8
20260507113812 18 195 0.0 0.0 0.00 0.00 0.00 99 1011.8
20260507113308 18 195 0.0 0.0 0.00 0.00 0.00 99 1012.1
20260507112806 18 195 0.0 0.0 0.00 0.00 0.00 99 1012.0
20260507112306 18 192 0.0 0.0 0.00 0.00 0.00 99 1011.8
20260507111801 18 156 0.0 0.0 0.00 0.00 0.00 99 1012.1
20260507111257 18 157 0.0 1.6 0.00 0.00 0.00 99 1011.9
20260507110753 18 156 0.0 0.0 0.00 0.00 0.00 99 1012.1
20260507110250 18 156 0.0 0.0 0.00 0.00 0.00 99 1011.9
20260507105746 18 151 0.0 0.0 0.00 0.00 0.00 99 1011.8
20260507105236 18 109 0.0 0.0 0.00 0.00 0.00 99 1011.8
20260507104734 18 109 0.0 0.0 0.00 0.00 0.00 99 1011.6
20260507104231 18 109 0.0 0.0 0.00 0.00 0.00 99 1011.7
20260507103726 18 109 0.0 0.0 0.00 0.00 0.00 99 1011.5
20260507103223 18 109 0.0 0.0 0.00 0.00 0.00 99 1011.6
20260507102719 18 103 0.0 0.0 0.00 0.00 0.00 99 1011.7
20260507102216 18 102 0.0 0.0 0.00 0.00 0.00 99 1011.6
20260507101712 18 104 0.0 0.0 0.00 0.00 0.00 99 1011.6
20260507101207 18 104 0.0 0.0 0.00 0.00 0.00 99 1011.7
20260507100705 18 104 0.0 0.0 0.00 0.00 0.00 99 1011.5
20260507100203 18 103 0.0 0.0 0.00 0.00 0.00 99 1011.7
20260507095701 18 101 0.0 0.0 0.00 0.00 0.00 99 1011.6
20260507095157 18 99 0.0 0.0 0.00 0.00 0.00 99 1011.4
20260507094653 18 99 0.0 0.0 0.00 0.00 0.00 99 1011.7
20260507094150 18 98 0.0 0.0 0.00 0.00 0.00 99 1011.4
20260507093648 18 98 0.0 0.0 0.00 0.00 0.00 99 1011.6
20260507093146 18 97 0.0 0.0 0.00 0.00 0.00 99 1011.5
20260507092642 18 86 0.0 0.0 0.00 0.00 0.00 99 1011.7
20260507092139 18 84 0.0 0.0 0.00 0.00 0.00 99 1011.4
20260507091636 18 84 0.0 0.0 0.00 0.00 0.00 99 1011.3
20260507091132 18 84 0.0 0.0 0.00 0.00 0.00 99 1011.5
20260507090627 18 84 0.0 0.0 0.00 0.00 0.00 99 1011.8
20260507090125 17 84 0.0 0.0 0.00 0.00 0.00 99 1011.7
20260507085616 17 84 0.0 0.0 0.00 0.00 0.00 99 1011.6
20260507085113 18 82 0.0 0.0 0.00 0.00 0.00 99 1011.5
20260507084609 18 81 0.0 0.0 0.00 0.00 0.00 99 1011.8
20260507084106 17 81 0.0 0.0 0.00 0.00 0.00 99 1011.7
20260507083602 17 71 0.0 0.0 0.00 0.00 0.00 99 1012.0
20260507083100 17 71 0.0 0.0 0.00 0.00 0.00 99 1012.0
20260507082555 17 172 0.0 0.0 0.00 0.00 0.00 99 1012.0
20260507082052 17 157 1.6 1.6 0.00 0.00 0.00 99 1012.4
20260507081548 17 130 1.6 1.6 0.00 0.00 0.00 99 1012.5
20260507081046 17 126 0.0 0.0 0.00 0.00 0.00 99 1012.5
20260507080542 17 126 0.0 0.0 0.00 0.00 0.00 99 1012.6
20260507080039 17 124 0.0 0.0 0.00 0.00 0.00 99 1012.4
20260507075534 17 122 0.0 0.0 0.00 0.00 0.00 99 1012.3
20260507075030 17 117 0.0 0.0 0.00 0.00 0.00 99 1012.3
20260507074526 17 115 0.0 0.0 0.00 0.00 0.00 99 1011.8
20260507074026 17 140 0.0 0.0 0.00 0.00 0.00 99 1011.6
20260507073521 17 140 0.0 0.0 0.00 0.00 0.00 99 1012.5
20260507073018 17 140 0.0 0.0 0.00 0.00 0.00 99 1012.8
20260507072515 17 139 0.0 0.0 0.00 0.00 0.00 99 1012.7
20260507072012 17 136 0.0 0.0 0.00 0.00 0.00 99 1012.9
20260507071509 18 136 0.0 0.0 0.00 0.00 0.00 99 1012.5
20260507071006 18 135 0.0 0.0 0.00 0.00 0.00 99 1012.6
20260507070503 18 135 0.0 0.0 0.00 0.00 0.00 99 1012.7
20260507070000 18 135 0.0 0.0 0.00 0.00 0.00 99 1012.4
20260507065456 18 135 0.0 1.6 0.00 0.00 0.00 99 1012.7
20260507064954 18 135 0.0 0.0 0.00 0.00 0.00 99 1012.9
20260507064452 18 135 0.0 0.0 0.00 0.00 0.00 99 1012.8
20260507063949 18 135 0.0 0.0 0.00 0.00 0.00 99 1013.0
20260507063446 18 135 0.0 0.0 0.00 0.00 0.00 99 1012.7
20260507062943 18 135 0.0 0.0 0.00 0.00 0.00 99 1013.1
20260507062440 18 135 0.0 0.0 0.00 0.00 0.00 99 1013.3
20260507061937 18 135 0.0 0.0 0.00 0.00 0.00 99 1013.5
20260507061435 18 135 0.0 0.0 0.00 0.00 0.00 99 1013.5
20260507060934 18 135 0.0 0.0 0.00 0.00 0.00 99 1013.4
20260507060430 18 135 0.0 0.0 0.00 0.00 0.00 99 1013.6
20260507055927 18 135 0.0 0.0 0.00 0.00 0.00 99 1013.5
20260507055422 18 135 0.0 0.0 0.00 0.00 0.00 99 1013.7
20260507054914 18 135 0.0 0.0 0.00 0.00 0.00 99 1013.7
20260507054410 18 135 0.0 0.0 0.00 0.00 0.00 99 1013.6
20260507053908 18 135 0.0 0.0 0.00 0.00 0.00 99 1013.3
20260507053405 18 135 0.0 0.0 0.00 0.00 0.00 99 1013.3
20260507052904 18 134 0.0 0.0 0.00 0.00 0.00 99 1012.9
20260507052400 18 135 0.0 0.0 0.00 0.00 0.00 99 1012.5
20260507051858 18 134 0.0 0.0 0.00 0.00 0.00 98 1012.7
20260507051355 18 134 0.0 0.0 0.00 0.00 0.00 98 1012.7
20260507050852 18 134 0.0 0.0 0.00 0.00 0.00 98 1013.0
20260507050349 18 128 0.0 0.0 0.00 0.00 0.00 98 1012.9
20260507045845 18 120 0.0 0.0 0.00 0.00 0.00 98 1013.6
20260507045342 18 220 0.0 0.0 0.00 0.00 0.00 97 1015.3